Simultaneous Nadir Overpasses (SNOs) Predictions

Prediction of SNOs between METOP-B and NPP Satellite Orbit:

Table of predicted SNOs for the next 14.0 days since TLE Epoch: 1/19/2019
Index Date (METOP-B) Time (METOP-B) Lat,Lon (METOP-B) SZA (METOP-B ) Date (NPP) Time (NPP) Lat,Lon (NPP) SZA (NPP ) Distance(km) Time Diff (sec)
1 02/01/2019 18:25:18 73.40,-103.30 90.59 02/01/2019 18:24:10 73.42,-105.66 90.76 75.03 68
2 02/01/2019 19:16:02 -73.33, 63.85 89.49 02/01/2019 19:14:52 -73.31, 61.90 89.38 62.33 70
3 02/01/2019 20:06:46 73.08,-129.35 90.29 02/01/2019 20:05:34 73.13,-130.38 90.41 33.77 72
4 02/01/2019 20:57:29 -73.06, 37.92 89.75 02/01/2019 20:56:16 -73.02, 37.17 89.72 24.71 73
5 02/01/2019 21:48:12 72.86,-155.16 90.08 02/01/2019 21:46:59 72.88,-155.23 90.12 3.14 73
6 02/01/2019 22:38:55 -72.84, 12.11 89.96 02/01/2019 22:37:42 -72.83, 12.21 89.96 3.50 73
7 02/01/2019 23:29:34 72.84, 179.46 90.04 02/01/2019 23:28:28 72.84, 179.49 90.05 1.15 66
8 02/02/2019 00:20:16 -72.82, -13.27 89.99 02/02/2019 00:19:11 -72.83, -13.18 89.97 3.17 65
9 02/02/2019 01:10:55 72.83, 154.08 90.01 02/02/2019 01:09:57 72.85, 154.10 90.04 2.19 58
10 02/02/2019 02:01:37 -72.85, -38.54 89.99 02/02/2019 02:00:41 -72.84, -38.57 89.99 1.79 56
11 02/02/2019 02:52:16 72.86, 128.81 90.01 02/02/2019 02:51:27 72.85, 128.71 90.02 3.26 49




NCC Satellite Simultaneous Nadir Overpasses (SNOs) Prediction Service
